Location: *
(43.0409°N, 0.1694°E)
Time: 22:55:59
(UTC+00:00)

Cosmos 44 Rocket - Pass Details

Date: 03 October 2023
Orbit: 634 x 751 km, 65.1° (Epoch: 05 December)

Event Time Altitude Azimuth Distance (km) Brightness Sun altitude
Exits shadow 04:03:51 25° 190° (S) 1,416 4.6 -21.6°
Maximum altitude 04:06:39 60° 119° (ESE) 822 3.8 -21.1°
Drops below altitude 10° 04:11:42 10° 40° (NE) 2,244 6.7 -20.2°
Sets 04:14:09 0° 37° (NE) 3,184 7.5 -19.7°
